,,,PA_Meas_PMT16A,,PR_Meas_QMR101_102,,RH_Meas_QMH101,,SR_Meas_QMS101,,TA_Meas_QMH101,,GenWind,,GenWind,
date,time,status,PA,status,PR,status,RH,status,SR,status,TA,status,DirAvg,status,SpdAvg,
2010-11-14, 00:00:04,VALID,1000.94,VALID,0,VALID,89.9303,VALID,0,VALID,23.2897,VALID,118,VALID,0.683594,
2010-11-14, 00:01:04,VALID,1000.97,VALID,0,VALID,89.793,VALID,0.112286,VALID,23.3482,VALID,118,VALID,0.695313,
2010-11-14, 00:02:04,VALID,1001,VALID,0,VALID,89.5412,VALID,0,VALID,23.4067,VALID,118,VALID,0.696484,
2010-11-14, 00:03:04,VALID,1000.99,VALID,0,VALID,89.2894,VALID,0.112286,VALID,23.5043,VALID,118,VALID,0.775,
2010-11-14, 00:04:04,VALID,1001,VALID,0,VALID,88.9919,VALID,0,VALID,23.5433,VALID,118,VALID,0.747656,
2010-11-14, 00:05:04,VALID,1000.99,VALID,0,VALID,88.6867,VALID,0.112286,VALID,23.5628,VALID,118,VALID,0.804297,
2010-11-14, 00:06:04,VALID,1001.02,VALID,0,VALID,88.5723,VALID,0.112286,VALID,23.6036,VALID,116,VALID,0.848047,
2010-11-14, 00:07:04,VALID,1001.06,VALID,0,VALID,88.6409,VALID,0.112286,VALID,23.6019,VALID,94,VALID,1.15469,
2010-11-14, 00:08:04,VALID,1001.08,VALID,0,VALID,88.557,VALID,0,VALID,23.6019,VALID,75,VALID,1.47891,
2010-11-14, 00:09:04,VALID,1001.08,VALID,0,VALID,88.6791,VALID,0,VALID,23.6409,VALID,69,VALID,1.57656,
2010-11-14, 00:10:04,VALID,1001.08,VALID,0,VALID,88.8164,VALID,0,VALID,23.6214,VALID,50,VALID,1.97305,
2010-11-14, 00:11:04,VALID,1001.1,VALID,0,VALID,88.9461,VALID,0.112286,VALID,23.5628,VALID,30,VALID,2.43086,
2010-11-14, 00:12:04,VALID,1001.08,VALID,0,VALID,89.1521,VALID,0,VALID,23.4653,VALID,41,VALID,2.23398,
2010-11-14, 00:13:04,VALID,1001.04,VALID,0,VALID,89.5412,VALID,0.112286,VALID,23.4067,VALID,50,VALID,1.71484,
2010-11-14, 00:14:04,VALID,1001.04,VALID,0,VALID,89.7777,VALID,0.112286,VALID,23.3872,VALID,47,VALID,1.45586,
2010-11-14, 00:15:04,VALID,1001.04,VALID,0,VALID,89.9303,VALID,0.112286,VALID,23.3677,VALID,51,VALID,1.60625,
2010-11-14, 00:16:04,VALID,1001.05,VALID,0,VALID,90.06,VALID,0.112286,VALID,23.3695,VALID,74,VALID,1.225,
2010-11-14, 00:17:04,VALID,1001.08,VALID,0,VALID,90.1516,VALID,0,VALID,23.3287,VALID,87,VALID,1.48359,
2010-11-14, 00:18:04,VALID,1001.14,VALID,0,VALID,90.266,VALID,0.112286,VALID,23.3287,VALID,75,VALID,1.44883,
2010-11-14, 00:19:04,VALID,1001.11,VALID,0,VALID,90.3576,VALID,0.112286,VALID,23.3092,VALID,76,VALID,1.17188,
2010-11-14, 00:20:04,VALID,1001.14,VALID,0,VALID,90.411,VALID,0,VALID,23.2702,VALID,85,VALID,1.08594,
2010-11-14, 00:21:04,VALID,1001.15,VALID,0,VALID,90.4797,VALID,0,VALID,23.2702,VALID,76,VALID,0.984375,
2010-11-14, 00:22:04,VALID,1001.11,VALID,0,VALID,90.5026,VALID,0.112286,VALID,23.2702,VALID,53,VALID,1.07969,
2010-11-14, 00:23:04,VALID,1001.12,VALID,0,VALID,90.472,VALID,0.112286,VALID,23.2702,VALID,69,VALID,1.07266,
2010-11-14, 00:24:04,VALID,1001.12,VALID,0,VALID,90.4339,VALID,0,VALID,23.2507,VALID,72,VALID,0.923437,
2010-11-14, 00:25:04,VALID,1001.14,VALID,0,VALID,90.3423,VALID,0.112286,VALID,23.2915,VALID,83,VALID,0.671484,
2010-11-14, 00:26:04,VALID,1001.14,VALID,0,VALID,90.2355,VALID,0,VALID,23.2702,VALID,86,VALID,0.345703,
2010-11-14, 00:27:04,VALID,1001.13,VALID,0,VALID,90.1668,VALID,0,VALID,23.2507,VALID,86,VALID,0.239844,
2010-11-14, 00:28:04,VALID,1001.11,VALID,0,VALID,90.1134,VALID,0,VALID,23.2507,VALID,86,VALID,0.521484,
2010-11-14, 00:29:04,VALID,1001.15,VALID,0,VALID,90.1211,VALID,0,VALID,23.2897,VALID,80,VALID,0.686719,
2010-11-14, 00:30:04,VALID,1001.14,VALID,0,VALID,90.0829,VALID,0.112286,VALID,23.3287,VALID,60,VALID,0.575781,
2010-11-14, 00:31:04,VALID,1001.15,VALID,0,VALID,89.9227,VALID,0.112286,VALID,23.3872,VALID,53,VALID,0.775,
2010-11-14, 00:32:04,VALID,1001.13,VALID,0,VALID,89.8235,VALID,0.112286,VALID,23.4653,VALID,83,VALID,1.00703,
2010-11-14, 00:33:04,VALID,1001.12,VALID,0,VALID,89.999,VALID,0,VALID,23.6019,VALID,68,VALID,1.22187,
2010-11-14, 00:34:04,VALID,1001.13,VALID,0,VALID,89.9303,VALID,0,VALID,23.7579,VALID,51,VALID,1.22109,
2010-11-14, 00:35:04,VALID,1001.12,VALID,0,VALID,89.5336,VALID,0.112286,VALID,23.9708,VALID,58,VALID,1.72812,
2010-11-14, 00:36:04,VALID,1001.09,VALID,0,VALID,88.6333,VALID,0,VALID,24.2263,VALID,81,VALID,2.61719,
2010-11-14, 00:37:04,VALID,1001.05,VALID,0,VALID,87.3134,VALID,0.112286,VALID,24.5404,VALID,77,VALID,2.09844,
2010-11-14, 00:38:04,VALID,1001,VALID,0,VALID,86.6496,VALID,0.112286,VALID,24.6556,VALID,76,VALID,1.73086,
2010-11-14, 00:39:04,VALID,1001.04,VALID,0,VALID,86.558,VALID,0,VALID,24.6946,VALID,85,VALID,1.68828,
2010-11-14, 00:40:04,VALID,1001.01,VALID,0,VALID,86.5886,VALID,0,VALID,24.716,VALID,89,VALID,1.49023,
2010-11-14, 00:41:04,VALID,1000.98,VALID,0,VALID,86.4894,VALID,0,VALID,24.716,VALID,117,VALID,1.43398,
2010-11-14, 00:42:04,VALID,1000.96,VALID,0,VALID,86.291,VALID,0,VALID,24.7142,VALID,91,VALID,2.0332,
2010-11-14, 00:43:04,VALID,1000.96,VALID,0,VALID,85.4899,VALID,0,VALID,24.7746,VALID,93,VALID,2.4168,
2010-11-14, 00:44:04,VALID,1000.9,VALID,0,VALID,84.8261,VALID,0,VALID,24.8332,VALID,88,VALID,2.58555,
2010-11-14, 00:45:04,VALID,1000.88,VALID,0,VALID,83.468,VALID,0,VALID,24.8722,VALID,87,VALID,2.85938,
2010-11-14, 00:46:04,VALID,1000.85,VALID,0,VALID,82.7356,VALID,0,VALID,24.9112,VALID,78,VALID,2.9457,
2010-11-14, 00:47:04,VALID,1000.82,VALID,0,VALID,82.728,VALID,0,VALID,24.9484,VALID,78,VALID,2.22109,
2010-11-14, 00:48:04,VALID,1000.73,VALID,0,VALID,81.4843,VALID,0,VALID,24.9503,VALID,89,VALID,3.42812,
2010-11-14, 00:49:04,VALID,1000.7,VALID,0,VALID,79.8592,VALID,0,VALID,25.0674,VALID,84,VALID,3.7168,
2010-11-14, 00:50:04,VALID,1000.71,VALID,0,VALID,79.432,VALID,0,VALID,25.1241,VALID,86,VALID,3.11055,
2010-11-14, 00:51:04,VALID,1000.68,VALID,0,VALID,79.4854,VALID,0,VALID,25.204,VALID,100,VALID,2.54922,
2010-11-14, 00:52:04,VALID,1000.64,VALID,0,VALID,79.0123,VALID,0,VALID,25.204,VALID,98,VALID,2.22969,
2010-11-14, 00:53:04,VALID,1000.65,VALID,0,VALID,79.4701,VALID,0,VALID,25.1826,VALID,96,VALID,2.72969,
2010-11-14, 00:54:04,VALID,1000.65,VALID,0,VALID,80.0347,VALID,0,VALID,25.165,VALID,81,VALID,2.33633,
2010-11-14, 00:55:04,VALID,1000.65,VALID,0,VALID,79.6838,VALID,0,VALID,25.1045,VALID,82,VALID,2.1918,
2010-11-14, 00:56:04,VALID,1000.67,VALID,0,VALID,79.638,VALID,0,VALID,25.0674,VALID,76,VALID,2.50117,
2010-11-14, 00:57:04,VALID,1000.7,VALID,0,VALID,79.5159,VALID,0,VALID,25.0284,VALID,70,VALID,2.75664,
2010-11-14, 00:58:04,VALID,1000.67,VALID,0,VALID,79.6151,VALID,0,VALID,25.0088,VALID,68,VALID,2.39297,
2010-11-14, 00:59:04,VALID,1000.73,VALID,0,VALID,80.3704,VALID,0,VALID,24.9484,VALID,68,VALID,2.77148,
2010-11-14, 01:00:04,VALID,1000.79,VALID,0,VALID,80.2178,VALID,0,VALID,24.8898,VALID,82,VALID,3.02344,
2010-11-14, 01:01:04,VALID,1000.85,VALID,0,VALID,80.9274,VALID,0,VALID,24.8703,VALID,79,VALID,2.06484,
2010-11-14, 01:02:04,VALID,1000.88,VALID,0,VALID,81.3928,VALID,0,VALID,24.8332,VALID,89,VALID,1.60156,
2010-11-14, 01:03:04,VALID,1000.9,VALID,0,VALID,81.1563,VALID,0,VALID,24.7337,VALID,95,VALID,2.10391,
2010-11-14, 01:04:04,VALID,1000.87,VALID,0,VALID,80.4543,VALID,0,VALID,24.7142,VALID,97,VALID,3.08672,
2010-11-14, 01:05:04,VALID,1000.91,VALID,0,VALID,80.2865,VALID,0,VALID,24.7142,VALID,101,VALID,2.82969,
2010-11-14, 01:06:04,VALID,1000.85,VALID,0,VALID,80.8587,VALID,0,VALID,24.677,VALID,97,VALID,2.33281,
2010-11-14, 01:07:04,VALID,1000.82,VALID,0,VALID,81.7438,VALID,0,VALID,24.6166,VALID,102,VALID,2.08789,
2010-11-14, 01:08:04,VALID,1000.78,VALID,0,VALID,82.2931,VALID,0,VALID,24.5599,VALID,114,VALID,1.11641,
2010-11-14, 01:09:04,VALID,1000.74,VALID,0,VALID,82.2626,VALID,0,VALID,24.4604,VALID,108,VALID,1.62383,
2010-11-14, 01:10:04,VALID,1000.67,VALID,0,VALID,82.6822,VALID,0,VALID,24.4019,VALID,120,VALID,1.5957,
2010-11-14, 01:11:04,VALID,1000.61,VALID,0,VALID,82.9035,VALID,0,VALID,24.3629,VALID,129,VALID,1.46211,
2010-11-14, 01:12:04,VALID,1000.51,VALID,0,VALID,82.171,VALID,0,VALID,24.3452,VALID,138,VALID,1.44687,
2010-11-14, 01:13:04,VALID,1000.44,VALID,0,VALID,82.2702,VALID,0,VALID,24.3433,VALID,132,VALID,1.52734,
2010-11-14, 01:14:04,VALID,1000.35,VALID,0,VALID,81.8429,VALID,0,VALID,24.3824,VALID,110,VALID,1.57227,
2010-11-14, 01:15:04,VALID,1000.31,VALID,0,VALID,81.3623,VALID,0,VALID,24.4037,VALID,100,VALID,1.10469,
2010-11-14, 01:16:04,VALID,1000.27,VALID,0,VALID,81.7132,VALID,0,VALID,24.4019,VALID,68,VALID,1.1332,
2010-11-14, 01:17:04,VALID,1000.28,VALID,0,VALID,81.5454,VALID,0,VALID,24.4019,VALID,47,VALID,1.40391,
2010-11-14, 01:18:04,VALID,1000.26,VALID,0,VALID,82.3389,VALID,0,VALID,24.4019,VALID,17,VALID,1.14063,
2010-11-14, 01:19:04,VALID,1000.26,VALID,0,VALID,82.8119,VALID,0,VALID,24.3238,VALID,13,VALID,1.28555,
2010-11-14, 01:20:04,VALID,1000.27,VALID,0,VALID,82.8806,VALID,0,VALID,24.2458,VALID,27,VALID,1.11914,
2010-11-14, 01:21:04,VALID,1000.29,VALID,0,VALID,83.1476,VALID,0,VALID,24.2067,VALID,29,VALID,0.842578,
2010-11-14, 01:22:04,VALID,1000.33,VALID,0,VALID,83.5672,VALID,0,VALID,24.1482,VALID,29,VALID,0.560547,
2010-11-14, 01:23:04,VALID,1000.35,VALID,0,VALID,83.6588,VALID,0,VALID,24.1305,VALID,32,VALID,0.588281,
2010-11-14, 01:24:04,VALID,1000.38,VALID,0,VALID,83.9182,VALID,0,VALID,24.0915,VALID,64,VALID,0.799609,
2010-11-14, 01:25:04,VALID,1000.38,VALID,0,VALID,84.292,VALID,0.112286,VALID,24.072,VALID,71,VALID,0.53125,
2010-11-14, 01:26:04,VALID,1000.4,VALID,0,VALID,84.0479,VALID,0,VALID,24.0329,VALID,112,VALID,0.566016,
2010-11-14, 01:27:04,VALID,1000.41,VALID,0,VALID,84.4904,VALID,0,VALID,24.0116,VALID,142,VALID,0.717188,
2010-11-14, 01:28:04,VALID,1000.38,VALID,0,VALID,84.4446,VALID,0,VALID,24.0116,VALID,143,VALID,0.757813,
2010-11-14, 01:29:04,VALID,1000.33,VALID,0,VALID,84.8032,VALID,0,VALID,24.0329,VALID,150,VALID,0.455078,
2010-11-14, 01:30:04,VALID,1000.32,VALID,0,VALID,84.2768,VALID,0,VALID,24.0329,VALID,159,VALID,0.468359,
2010-11-14, 01:31:04,VALID,1000.31,VALID,0,VALID,84.5057,VALID,0,VALID,24.0329,VALID,141,VALID,0.688672,
2010-11-14, 01:32:04,VALID,1000.3,VALID,0,VALID,84.2539,VALID,0,VALID,24.0311,VALID,117,VALID,0.921094,
2010-11-14, 01:33:04,VALID,1000.31,VALID,0,VALID,84.4599,VALID,0,VALID,24.0506,VALID,89,VALID,1.05039,
2010-11-14, 01:34:04,VALID,1000.28,VALID,0,VALID,84.1776,VALID,0,VALID,24.0506,VALID,70,VALID,1.33086,
2010-11-14, 01:35:04,VALID,1000.22,VALID,0,VALID,84.3912,VALID,0,VALID,24.0701,VALID,55,VALID,1.64102,
2010-11-14, 01:36:04,VALID,1000.18,VALID,0,VALID,84.5209,VALID,0,VALID,24.0915,VALID,83,VALID,1.4207,
2010-11-14, 01:37:04,VALID,1000.16,VALID,0,VALID,84.4828,VALID,0,VALID,24.0915,VALID,77,VALID,1.73398,
2010-11-14, 01:38:04,VALID,1000.08,VALID,0,VALID,84.9711,VALID,0,VALID,24.072,VALID,71,VALID,1.11289,
2010-11-14, 01:39:04,VALID,1000.05,VALID,0,VALID,84.6049,VALID,0,VALID,24.072,VALID,96,VALID,1.41641,
2010-11-14, 01:40:04,VALID,1000.04,VALID,0,VALID,85.467,VALID,0,VALID,24.0311,VALID,83,VALID,0.95,
2010-11-14, 01:41:04,VALID,1000.03,VALID,0.5,VALID,86.1079,VALID,0,VALID,23.9726,VALID,83,VALID,0.783984,
2010-11-14, 01:42:04,VALID,999.992,VALID,0,VALID,86.4665,VALID,0,VALID,23.9354,VALID,107,VALID,0.821094,
2010-11-14, 01:43:04,VALID,1000,VALID,0,VALID,86.7411,VALID,0,VALID,23.8555,VALID,107,VALID,0.602344,
2010-11-14, 01:44:04,VALID,1000.03,VALID,0,VALID,86.9166,VALID,0,VALID,23.8378,VALID,107,VALID,0.762891,
2010-11-14, 01:45:04,VALID,999.99,VALID,0,VALID,87.1455,VALID,0,VALID,23.7775,VALID,107,VALID,0.526563,
2010-11-14, 01:46:04,VALID,1000.01,VALID,0,VALID,87.588,VALID,0,VALID,23.7384,VALID,124,VALID,0.611719,
2010-11-14, 01:47:04,VALID,999.954,VALID,0,VALID,87.4812,VALID,0,VALID,23.6994,VALID,157,VALID,0.875,
2010-11-14, 01:48:04,VALID,999.916,VALID,0,VALID,87.2905,VALID,0,VALID,23.6994,VALID,164,VALID,0.963281,
2010-11-14, 01:49:04,VALID,999.913,VALID,0,VALID,87.176,VALID,0,VALID,23.7189,VALID,167,VALID,1.125,
2010-11-14, 01:50:04,VALID,999.893,VALID,0,VALID,87.176,VALID,0,VALID,23.7597,VALID,160,VALID,1.17383,
2010-11-14, 01:51:04,VALID,999.854,VALID,0,VALID,87.0997,VALID,0,VALID,23.7597,VALID,161,VALID,0.916797,
2010-11-14, 01:52:04,VALID,999.866,VALID,0,VALID,86.1537,VALID,0,VALID,23.7775,VALID,162,VALID,1.19219,
2010-11-14, 01:53:04,VALID,999.867,VALID,0,VALID,86.1537,VALID,0,VALID,23.8378,VALID,161,VALID,0.991406,
2010-11-14, 01:54:04,VALID,999.871,VALID,0,VALID,86.3368,VALID,0,VALID,23.836,VALID,162,VALID,1.00781,
2010-11-14, 01:55:04,VALID,999.925,VALID,0,VALID,86.2757,VALID,0,VALID,23.8768,VALID,161,VALID,0.969922,
2010-11-14, 01:56:04,VALID,999.936,VALID,0,VALID,86.291,VALID,0,VALID,23.8768,VALID,151,VALID,0.648828,
2010-11-14, 01:57:04,VALID,999.962,VALID,0,VALID,86.558,VALID,0,VALID,23.8573,VALID,151,VALID,0.549609,
2010-11-14, 01:58:04,VALID,999.967,VALID,0,VALID,86.3978,VALID,0,VALID,23.797,VALID,151,VALID,0.503516,
2010-11-14, 01:59:04,VALID,999.953,VALID,0,VALID,86.1613,VALID,0,VALID,23.797,VALID,151,VALID,0.514063,
2010-11-14, 02:00:04,VALID,999.938,VALID,0,VALID,85.612,VALID,0,VALID,23.797,VALID,71,VALID,0.79375,
2010-11-14, 02:01:04,VALID,999.854,VALID,0,VALID,86.0316,VALID,0,VALID,23.797,VALID,19,VALID,0.816016,
2010-11-14, 02:02:04,VALID,999.817,VALID,0,VALID,86.0087,VALID,0,VALID,23.8165,VALID,7,VALID,0.965234,
2010-11-14, 02:03:04,VALID,999.739,VALID,0,VALID,85.4899,VALID,0,VALID,23.8378,VALID,348,VALID,0.980469,
2010-11-14, 02:04:04,VALID,999.68,VALID,0,VALID,87.3744,VALID,0,VALID,23.8165,VALID,325,VALID,1.1293,
2010-11-14, 02:05:04,VALID,999.676,VALID,0,VALID,87.672,VALID,0,VALID,23.7384,VALID,329,VALID,0.997266,
2010-11-14, 02:06:04,VALID,999.726,VALID,0,VALID,87.8551,VALID,0,VALID,23.6799,VALID,8,VALID,1.21367,
2010-11-14, 02:07:04,VALID,999.746,VALID,0,VALID,88.0687,VALID,0,VALID,23.6214,VALID,20,VALID,1.29453,
2010-11-14, 02:08:04,VALID,999.74,VALID,0,VALID,87.5651,VALID,0,VALID,23.6019,VALID,31,VALID,1.68906,
2010-11-14, 02:09:04,VALID,999.728,VALID,0,VALID,87.3897,VALID,0.112286,VALID,23.6214,VALID,13,VALID,1.04375,
2010-11-14, 02:10:04,VALID,999.681,VALID,0,VALID,86.9548,VALID,0,VALID,23.6409,VALID,30,VALID,1.25117,
2010-11-14, 02:11:04,VALID,999.693,VALID,0,VALID,86.497,VALID,0,VALID,23.6799,VALID,36,VALID,0.846094,
2010-11-14, 02:12:04,VALID,999.69,VALID,0,VALID,86.0621,VALID,0,VALID,23.7207,VALID,49,VALID,1.33477,
2010-11-14, 02:13:04,VALID,999.656,VALID,0,VALID,85.9629,VALID,0,VALID,23.7384,VALID,63,VALID,1.0293,
2010-11-14, 02:14:04,VALID,999.658,VALID,0,VALID,85.7722,VALID,0,VALID,23.797,VALID,59,VALID,1.59063,
2010-11-14, 02:15:04,VALID,999.66,VALID,0,VALID,85.0855,VALID,0,VALID,23.836,VALID,62,VALID,1.32344,
2010-11-14, 02:16:04,VALID,999.652,VALID,0,VALID,85.6654,VALID,0,VALID,23.875,VALID,57,VALID,1.02188,
2010-11-14, 02:17:04,VALID,999.632,VALID,0,VALID,86.024,VALID,0,VALID,23.875,VALID,53,VALID,1.30586,
2010-11-14, 02:18:04,VALID,999.646,VALID,0,VALID,86.6343,VALID,0,VALID,23.836,VALID,48,VALID,1.09883,
2010-11-14, 02:19:04,VALID,999.617,VALID,0,VALID,86.8556,VALID,0,VALID,23.8183,VALID,44,VALID,1.21719,
2010-11-14, 02:20:04,VALID,999.574,VALID,0,VALID,87.2142,VALID,0,VALID,23.7775,VALID,36,VALID,1.40508,
2010-11-14, 02:21:04,VALID,999.568,VALID,0,VALID,87.6414,VALID,0.112286,VALID,23.7579,VALID,40,VALID,1.32813,
2010-11-14, 02:22:04,VALID,999.492,VALID,0,VALID,88.0382,VALID,0,VALID,23.6994,VALID,28,VALID,1.34297,
2010-11-14, 02:23:04,VALID,999.43,VALID,0,VALID,88.0763,VALID,0,VALID,23.7012,VALID,25,VALID,1.10391,
2010-11-14, 02:24:04,VALID,999.411,VALID,0,VALID,88.0687,VALID,0,VALID,23.6427,VALID,24,VALID,0.880859,
2010-11-14, 02:25:04,VALID,999.415,VALID,0,VALID,87.9466,VALID,0,VALID,23.6445,VALID,22,VALID,0.786719,
2010-11-14, 02:26:04,VALID,999.453,VALID,0,VALID,87.9619,VALID,0,VALID,23.5841,VALID,30,VALID,0.932422,
2010-11-14, 02:27:04,VALID,999.458,VALID,0,VALID,88.145,VALID,0,VALID,23.6054,VALID,36,VALID,0.935156,
2010-11-14, 02:28:04,VALID,999.496,VALID,0,VALID,88.2213,VALID,0,VALID,23.5841,VALID,40,VALID,1.20391,
2010-11-14, 02:29:04,VALID,999.498,VALID,0,VALID,88.3815,VALID,0,VALID,23.6054,VALID,36,VALID,1.02656,
2010-11-14, 02:30:04,VALID,999.498,VALID,0,VALID,88.4807,VALID,0,VALID,23.5646,VALID,43,VALID,0.799609,
2010-11-14, 02:31:04,VALID,999.535,VALID,0,VALID,88.5341,VALID,0,VALID,23.5469,VALID,58,VALID,0.795703,
2010-11-14, 02:32:04,VALID,999.555,VALID,0,VALID,88.5265,VALID,0,VALID,23.5451,VALID,76,VALID,0.859766,
2010-11-14, 02:33:04,VALID,999.543,VALID,0,VALID,88.618,VALID,0,VALID,23.5274,VALID,87,VALID,0.754297,
2010-11-14, 02:34:04,VALID,999.569,VALID,0,VALID,88.7477,VALID,0,VALID,23.5061,VALID,97,VALID,0.861719,
2010-11-14, 02:35:04,VALID,999.59,VALID,0,VALID,89.1674,VALID,0,VALID,23.4866,VALID,111,VALID,0.993359,
2010-11-14, 02:36:04,VALID,999.547,VALID,0,VALID,89.4497,VALID,0,VALID,23.4688,VALID,111,VALID,1.04844,
2010-11-14, 02:37:04,VALID,999.555,VALID,0,VALID,89.5641,VALID,0,VALID,23.4085,VALID,111,VALID,0.841406,
2010-11-14, 02:38:04,VALID,999.587,VALID,0,VALID,89.6404,VALID,0,VALID,23.4103,VALID,111,VALID,0.948438,
2010-11-14, 02:39:04,VALID,999.549,VALID,0,VALID,89.8388,VALID,0,VALID,23.3482,VALID,132,VALID,1.3418,
2010-11-14, 02:40:04,VALID,999.539,VALID,0,VALID,89.9837,VALID,0,VALID,23.35,VALID,132,VALID,1.15586,
2010-11-14, 02:41:04,VALID,999.534,VALID,0,VALID,89.854,VALID,0,VALID,23.3092,VALID,132,VALID,0.973437,
2010-11-14, 02:42:04,VALID,999.53,VALID,0,VALID,89.6404,VALID,0,VALID,23.2897,VALID,150,VALID,0.65625,
2010-11-14, 02:43:04,VALID,999.527,VALID,0,VALID,89.381,VALID,0,VALID,23.2897,VALID,151,VALID,0.765234,
2010-11-14, 02:44:04,VALID,999.5,VALID,0,VALID,89.3505,VALID,0,VALID,23.2897,VALID,157,VALID,0.781641,
2010-11-14, 02:45:04,VALID,999.515,VALID,0,VALID,89.3886,VALID,0,VALID,23.3092,VALID,163,VALID,0.546484,
2010-11-14, 02:46:04,VALID,999.497,VALID,0,VALID,89.2666,VALID,0.112286,VALID,23.3092,VALID,163,VALID,0.214453,
2010-11-14, 02:47:04,VALID,999.503,VALID,0,VALID,89.2437,VALID,0,VALID,23.3305,VALID,163,VALID,0.689453,
2010-11-14, 02:48:04,VALID,999.495,VALID,0,VALID,89.1597,VALID,0.112286,VALID,23.3092,VALID,174,VALID,1.31445,
2010-11-14, 02:49:04,VALID,999.46,VALID,0,VALID,88.8622,VALID,0,VALID,23.3695,VALID,168,VALID,1.21328,
2010-11-14, 02:50:04,VALID,999.425,VALID,0,VALID,88.6562,VALID,0,VALID,23.4085,VALID,173,VALID,0.7125,
2010-11-14, 02:51:04,VALID,999.391,VALID,0,VALID,88.5417,VALID,0,VALID,23.3872,VALID,173,VALID,0.316406,
2010-11-14, 02:52:04,VALID,999.372,VALID,0,VALID,88.4502,VALID,0,VALID,23.3872,VALID,173,VALID,0.339844,
2010-11-14, 02:53:04,VALID,999.376,VALID,0,VALID,88.5265,VALID,0,VALID,23.3872,VALID,173,VALID,0.552734,
2010-11-14, 02:54:04,VALID,999.393,VALID,0,VALID,88.5875,VALID,0,VALID,23.4103,VALID,173,VALID,0.169922,
2010-11-14, 02:55:04,VALID,999.372,VALID,0,VALID,88.6333,VALID,0,VALID,23.3695,VALID,173,VALID,0,
2010-11-14, 02:56:04,VALID,999.381,VALID,0,VALID,88.5951,VALID,0,VALID,23.35,VALID,173,VALID,0.147266,
2010-11-14, 02:57:04,VALID,999.4,VALID,0,VALID,88.4349,VALID,0,VALID,23.311,VALID,68,VALID,0.757813,
2010-11-14, 02:58:04,VALID,999.473,VALID,0,VALID,88.1984,VALID,0,VALID,23.3127,VALID,132,VALID,0.990625,
2010-11-14, 02:59:04,VALID,999.51,VALID,0,VALID,88.1755,VALID,0,VALID,23.311,VALID,141,VALID,1.13555,
2010-11-14, 03:00:04,VALID,999.513,VALID,0,VALID,88.1908,VALID,0,VALID,23.311,VALID,140,VALID,0.398438,
2010-11-14, 03:01:04,VALID,999.539,VALID,0,VALID,88.3357,VALID,0,VALID,23.2719,VALID,134,VALID,0.480469,
2010-11-14, 03:02:04,VALID,999.562,VALID,0,VALID,88.496,VALID,0,VALID,23.2329,VALID,134,VALID,0.321484,
2010-11-14, 03:03:04,VALID,999.585,VALID,0,VALID,88.6333,VALID,0,VALID,23.2134,VALID,134,VALID,0.471875,
2010-11-14, 03:04:04,VALID,999.57,VALID,0,VALID,88.7172,VALID,0,VALID,23.1939,VALID,127,VALID,0.373047,
2010-11-14, 03:05:04,VALID,999.595,VALID,0,VALID,88.7859,VALID,0,VALID,23.1744,VALID,72,VALID,0.315625,
2010-11-14, 03:06:04,VALID,999.63,VALID,0,VALID,88.6943,VALID,0,VALID,23.1549,VALID,103,VALID,0.868359,
2010-11-14, 03:07:04,VALID,999.625,VALID,0,VALID,88.5417,VALID,0,VALID,23.1336,VALID,75,VALID,0.495703,
2010-11-14, 03:08:04,VALID,999.62,VALID,0,VALID,88.3357,VALID,0,VALID,23.1159,VALID,79,VALID,0.479297,
2010-11-14, 03:09:04,VALID,999.658,VALID,0,VALID,88.3281,VALID,0,VALID,23.0964,VALID,105,VALID,0.530469,
2010-11-14, 03:10:04,VALID,999.631,VALID,0,VALID,88.351,VALID,0.112286,VALID,23.0751,VALID,101,VALID,0.715234,
2010-11-14, 03:11:04,VALID,999.63,VALID,0,VALID,88.3052,VALID,0,VALID,23.0751,VALID,92,VALID,0.669922,
2010-11-14, 03:12:04,VALID,999.615,VALID,0,VALID,88.29,VALID,0,VALID,23.0556,VALID,92,VALID,0.257031,
2010-11-14, 03:13:04,VALID,999.624,VALID,0,VALID,88.2747,VALID,0,VALID,23.0556,VALID,92,VALID,0,
2010-11-14, 03:14:04,VALID,999.652,VALID,0,VALID,88.3052,VALID,0,VALID,23.0361,VALID,92,VALID,0,
2010-11-14, 03:15:04,VALID,999.627,VALID,0,VALID,88.3739,VALID,0,VALID,23.0166,VALID,92,VALID,0,
2010-11-14, 03:16:04,VALID,999.604,VALID,0,VALID,88.4349,VALID,0.112286,VALID,22.9971,VALID,92,VALID,0,
2010-11-14, 03:17:04,VALID,999.612,VALID,0,VALID,88.7325,VALID,0.112286,VALID,22.9776,VALID,92,VALID,0,
2010-11-14, 03:18:04,VALID,999.658,VALID,0,VALID,88.9537,VALID,0.112286,VALID,22.9971,VALID,92,VALID,0.271484,
2010-11-14, 03:19:04,VALID,999.671,VALID,0,VALID,88.9919,VALID,0.112286,VALID,22.9971,VALID,92,VALID,0.368359,
2010-11-14, 03:20:04,VALID,999.693,VALID,0,VALID,88.8088,VALID,0.112286,VALID,23.0166,VALID,92,VALID,0.445703,
2010-11-14, 03:21:04,VALID,999.728,VALID,0,VALID,88.6943,VALID,0,VALID,23.0556,VALID,92,VALID,0.384375,
2010-11-14, 03:22:04,VALID,999.734,VALID,0,VALID,88.6333,VALID,0.112286,VALID,23.0556,VALID,92,VALID,0.498828,
2010-11-14, 03:23:04,VALID,999.725,VALID,0,VALID,88.5494,VALID,0,VALID,23.0964,VALID,92,VALID,0.746484,
2010-11-14, 03:24:04,VALID,999.74,VALID,0,VALID,88.5646,VALID,0,VALID,23.0964,VALID,92,VALID,0.673828,
2010-11-14, 03:25:04,VALID,999.818,VALID,0,VALID,88.6486,VALID,0,VALID,23.1159,VALID,114,VALID,0.825391,
2010-11-14, 03:26:04,VALID,999.839,VALID,0,VALID,88.5417,VALID,0,VALID,23.1159,VALID,142,VALID,1.36602,
2010-11-14, 03:27:04,VALID,999.846,VALID,0,VALID,88.7554,VALID,0,VALID,23.1159,VALID,141,VALID,1.4707,
2010-11-14, 03:28:04,VALID,999.841,VALID,0,VALID,88.9537,VALID,0,VALID,23.1159,VALID,142,VALID,1.55469,
2010-11-14, 03:29:04,VALID,999.9,VALID,0,VALID,89.0834,VALID,0,VALID,23.1159,VALID,149,VALID,1.78945,
2010-11-14, 03:30:04,VALID,999.904,VALID,0,VALID,88.8469,VALID,0,VALID,23.1566,VALID,159,VALID,1.9375,
2010-11-14, 03:31:04,VALID,999.889,VALID,0,VALID,88.8622,VALID,0,VALID,23.1939,VALID,165,VALID,1.89414,
2010-11-14, 03:32:04,VALID,999.88,VALID,0,VALID,88.4349,VALID,0,VALID,23.2329,VALID,160,VALID,1.97969,
2010-11-14, 03:33:04,VALID,999.897,VALID,0,VALID,87.7635,VALID,0,VALID,23.2915,VALID,157,VALID,2.00742,
2010-11-14, 03:34:04,VALID,999.903,VALID,0,VALID,87.3286,VALID,0,VALID,23.311,VALID,158,VALID,2.00234,
2010-11-14, 03:35:04,VALID,999.94,VALID,0,VALID,87.2523,VALID,0,VALID,23.3695,VALID,162,VALID,1.67344,
2010-11-14, 03:36:04,VALID,999.96,VALID,0,VALID,87.3973,VALID,0,VALID,23.389,VALID,160,VALID,1.32461,
2010-11-14, 03:37:04,VALID,999.946,VALID,0,VALID,87.3057,VALID,0,VALID,23.3695,VALID,160,VALID,1.04531,
2010-11-14, 03:38:04,VALID,999.986,VALID,0,VALID,87.1303,VALID,0,VALID,23.3695,VALID,160,VALID,1.00703,
2010-11-14, 03:39:04,VALID,999.996,VALID,0,VALID,87.2142,VALID,0,VALID,23.3695,VALID,159,VALID,0.714844,
2010-11-14, 03:40:04,VALID,1000.01,VALID,0,VALID,87.3592,VALID,0,VALID,23.35,VALID,159,VALID,0.630469,
2010-11-14, 03:41:04,VALID,1000.02,VALID,0,VALID,87.5499,VALID,0,VALID,23.3305,VALID,159,VALID,0.469531,
2010-11-14, 03:42:04,VALID,1000.03,VALID,0,VALID,87.7635,VALID,0,VALID,23.2915,VALID,159,VALID,0.248047,
2010-11-14, 03:43:04,VALID,1000.03,VALID,0,VALID,87.9543,VALID,0,VALID,23.2524,VALID,159,VALID,0.300781,
2010-11-14, 03:44:04,VALID,1000.05,VALID,0,VALID,88.0916,VALID,0,VALID,23.2134,VALID,159,VALID,0.462891,
2010-11-14, 03:45:04,VALID,1000.05,VALID,0,VALID,88.1832,VALID,0,VALID,23.1744,VALID,159,VALID,0.407813,